EW3804 Weather Reports


Display with metric or nautical units.
time (UTC)temp
F
wind
direction
speed
MPH
gust
MPH
rain 1hr
in
rain 24hr
in
rain mn
in
humidity
%
barometer
mb
20260505230051 84 101 0.0 7.0 0.00 0.00 0.00 71 997.1
20260505224550 84 159 0.0 0.0 0.00 0.00 0.00 71 997.2
20260505223059 84 155 0.0 4.0 0.00 0.00 0.00 71 997.2
20260505221558 84 98 0.0 0.0 0.00 0.00 0.00 71 997.0
20260505220057 84 155 0.0 4.0 0.00 0.00 0.00 72 997.0
20260505214556 85 139 0.0 3.0 0.00 0.00 0.00 70 997.1
20260505213045 85 140 0.0 9.0 0.00 0.00 0.00 69 997.4
20260505211540 85 167 0.0 4.0 0.00 0.00 0.00 70 997.5
20260505210038 85 186 0.0 8.0 0.00 0.00 0.00 69 997.7
20260505204535 85 205 2.0 9.0 0.00 0.00 0.00 69 998.0
20260505203036 85 216 1.0 10.0 0.00 0.00 0.00 68 998.1
20260505201533 85 178 0.0 3.0 0.00 0.00 0.00 69 998.0
20260505200036 85 150 0.0 9.0 0.00 0.00 0.00 69 998.2
20260505194530 85 191 0.0 6.0 0.00 0.00 0.00 69 998.4
20260505193027 84 151 0.0 6.0 0.00 0.00 0.00 70 998.5
20260505191526 83 193 0.0 0.0 0.00 0.00 0.00 71 998.5
20260505190024 83 135 0.0 0.0 0.00 0.00 0.00 71 998.5
20260505184527 83 184 0.0 0.0 0.00 0.00 0.00 71 998.6
20260505183039 83 186 0.0 0.0 0.00 0.00 0.00 72 998.8
20260505181522 82 185 0.0 0.0 0.00 0.00 0.00 73 999.3
20260505180019 82 110 0.0 0.0 0.00 0.00 0.00 72 999.3
20260505174517 82 181 0.0 4.0 0.00 0.00 0.00 73 999.5
20260505173021 81 157 0.0 0.0 0.00 0.00 0.00 74 999.8
20260505171516 81 152 0.0 6.0 0.00 0.00 0.00 73 999.8
20260505170012 80 148 0.0 0.0 0.00 0.00 0.00 74 999.8
20260505164511 80 181 0.0 7.0 0.00 0.00 0.00 75 999.7
20260505163009 79 169 0.0 0.0 0.00 0.00 0.00 78 999.8
20260505161506 78 224 0.0 0.0 0.00 0.00 0.00 77 999.8
20260505153056 75 177 0.0 0.0 0.00 0.00 0.00 84 999.9
20260505151558 75 177 0.0 0.0 0.00 0.00 0.00 84 999.9
20260505124538 70 170 0.0 0.0 0.00 0.00 0.00 90 999.0
20260505123030 0 0.0 0.0 0.00 0.00 0.00 998.8
20260505121526 0 0.0 0.0 0.00 0.00 0.00 998.6
20260505120023 0 0.0 0.0 0.00 0.00 0.00 998.4
20260505114517 0 0.0 0.0 0.00 0.00 0.00 998.4
20260505113012 0 0.0 0.0 0.00 0.00 0.00 998.2
20260505111508 0 0.0 0.0 0.00 0.00 0.00 998.3
20260505101551 0 0.0 0.0 0.00 0.00 0.00 998.4
20260505100048 0 0.0 0.0 0.00 0.00 0.00 998.5
20260505094543 70 130 0.0 0.0 0.00 0.00 0.00 89 998.5
20260505093043 70 212 0.0 0.0 0.00 0.00 0.00 89 998.5
20260505091542 70 147 0.0 0.0 0.00 0.00 0.00 89 998.6
20260505090042 70 165 0.0 0.0 0.00 0.00 0.00 89 998.7
20260505084547 70 177 0.0 0.0 0.00 0.00 0.00 89 998.6
20260505083038 70 129 0.0 0.0 0.00 0.00 0.00 89 998.7
20260505081537 70 190 0.0 0.0 0.00 0.00 0.00 88 998.7
20260505080036 70 129 0.0 0.0 0.00 0.00 0.00 88 999.1
20260505074535 70 143 0.0 0.0 0.00 0.00 0.00 88 999.4
20260505073038 71 151 0.0 0.0 0.00 0.00 0.00 87 999.6
20260505071526 71 153 0.0 0.0 0.00 0.00 0.00 87 999.9
20260505070035 71 121 0.0 0.0 0.00 0.00 0.00 87 1000.1
20260505064522 71 151 0.0 0.0 0.00 0.00 0.00 86 1000.2
20260505063022 71 138 0.0 0.0 0.00 0.00 0.00 86 1000.3
20260505061524 71 153 0.0 0.0 0.00 0.00 0.00 86 1000.6
20260505060019 71 146 0.0 0.0 0.00 0.00 0.00 86 1000.4
20260505054518 71 190 0.0 0.0 0.00 0.00 0.00 86 1000.6
20260505053017 72 134 0.0 0.0 0.00 0.00 0.00 85 1000.6
20260505051520 72 141 0.0 0.0 0.00 0.00 0.00 84 1000.6
20260505041517 73 193 0.0 0.0 0.00 0.00 0.00 81 1000.5
20260505040010 73 153 0.0 0.0 0.00 0.00 0.00 80 1000.4
20260505034513 74 151 0.0 0.0 0.00 0.00 0.00 78 1000.4
20260505033008 74 127 0.0 0.0 0.00 0.00 0.00 77 1000.4
20260505031518 74 162 0.0 0.0 0.00 0.00 0.00 76 1000.5
20260505030007 75 142 0.0 0.0 0.00 0.00 0.00 75 1000.4
20260505024506 75 131 0.0 0.0 0.00 0.00 0.00 74 1000.3
20260505023009 75 144 0.0 0.0 0.00 0.00 0.00 74 1000.2
20260505021506 75 153 0.0 0.0 0.00 0.00 0.00 73 1000.0
20260505020005 75 142 0.0 0.0 0.00 0.00 0.00 73 999.9
20260505014504 76 165 0.0 0.0 0.00 0.00 0.00 72 999.7
20260505013003 76 161 0.0 6.0 0.00 0.00 0.00 72 999.6
20260505011503 76 173 0.0 2.0 0.00 0.00 0.00 71 999.7
20260505010002 77 146 0.0 1.0 0.00 0.00 0.00 70 999.9
20260505004601 77 146 0.0 0.0 0.00 0.00 0.00 69 1000.0
20260505003100 78 177 0.0 0.0 0.00 0.00 0.00 68 1000.0
20260505001600 79 173 0.0 0.0 0.00 0.00 0.00 66 999.9
20260505000115 79 152 0.0 0.0 0.00 0.00 0.00 65 1000.0
20260504234558 80 155 0.0 0.0 0.00 0.00 0.00 63 1000.2
20260504233108 81 82 0.0 0.0 0.00 0.00 0.00 62 1000.4
20260504231554 81 146 0.0 0.0 0.00 0.00 0.00 62 1000.4